Location: Melbourne
(37.8666°S, 145.1333°E)
Time: 06:58:14
(UTC+10:00)

Iridium 21 - Visible Passes

Search period start: 28 August 2014 00:00
Search period end: 07 September 2014 00:00
Orbit: 776 x 779 km, 86.4° (Epoch: 27 August)

Date Brightness Start Highest point End Pass type
(mag) Time Alt. Az. Time Alt. Az. Time Alt. Az.
31 Aug 8.2 21:08:08 10° S 21:08:31 12° SSW 21:08:31 12° SSW visible
01 Sep 7.7 20:34:31 10° S 20:35:34 16° S 20:35:34 16° S visible
02 Sep 7.4 20:01:15 10° SSE 20:02:41 18° SSE 20:02:41 18° SSE visible
02 Sep 8.4 21:42:45 10° SW 21:43:12 12° SW 21:43:12 12° SW visible
03 Sep 7.3 19:28:25 10° SSE 19:29:52 16° SE 19:29:52 16° SE visible
03 Sep 7.7 21:08:27 10° SSW 21:10:23 21° SSW 21:10:23 21° SSW visible
04 Sep 7.5 18:56:48 10° SE 18:57:06 11° ESE 18:57:06 11° ESE visible
04 Sep 6.8 20:34:38 10° S 20:37:38 35° SSW 20:37:38 35° SSW visible
05 Sep 6.0 20:01:09 10° S 20:04:58 44° SSE 20:04:58 44° SSE visible
05 Sep 8.3 21:43:47 10° SW 21:45:30 14° WSW 21:45:30 14° WSW visible
06 Sep 6.2 19:28:01 10° SSE 19:32:25 32° ESE 19:32:25 32° ESE visible
06 Sep 7.4 21:08:56 10° SSW 21:12:57 26° WSW 21:12:57 26° WSW visible
